Carcassonne Airport

LFMK · Occitanie, France

October 6, 2022

Time Code Weather Temp. Visibility Ceiling Wind METAR/SPECI
08:00
I
15 °C 4.4 km 900 ft 240° 240° 3 kt METAR LFCK 060600Z AUTO 24003KT 4400 BR OVC009 15/15 Q1030 BECMG 7000 NSW OVC010
07:30
I
16 °C 4.4 km 800 ft 250° 250° 3 kt METAR LFCK 060530Z AUTO 25003KT 4400 -RADZ BR OVC008 16/15 Q1030 BECMG 7000 NSW OVC010
07:00
M
16 °C 7 km 1,100 ft Var 000° 0 kt METAR LFCK 060500Z AUTO 00000KT 7000 OVC011 16/15 Q1030
06:30
M
16 °C 9 km 1,000 ft Var 000° 0 kt METAR LFCK 060430Z AUTO 00000KT 9000 OVC010 16/15 Q1030
06:00
I
16 °C 7 km 900 ft 290° 290° 3 kt METAR LFCK 060400Z AUTO 29003KT 7000 -DZ OVC009 16/15 Q1030
05:30
I
15 °C 9 km 900 ft Var Var 2 kt METAR LFCK 060330Z AUTO VRB02KT 9000 -RADZ OVC009 15/15 Q1029
05:00
I
15 °C 7 km 800 ft Var Var 3 kt METAR LFCK 060300Z AUTO VRB03KT 7000 OVC008 15/14 Q1029
04:30
I
14 °C 5 km 800 ft 260° 260° 2 kt METAR LFCK 060230Z AUTO 26002KT 5000 -RADZ BR OVC008 14/14 Q1029
04:00
I
15 °C 9 km 900 ft Var Var 2 kt METAR LFCK 060200Z AUTO VRB02KT 9000 BKN009 OVC032 15/14 Q1029
03:30
M
14 °C 7 km 4,100 ft 060° 060° 4 kt METAR LFCK 060130Z AUTO 06004KT 7000 FEW013 SCT033 BKN041 14/14 Q1029
03:00
M
14 °C 5 km - Var Var 3 kt METAR LFCK 060100Z AUTO VRB03KT 5000 R14/0900U BR NSC 14/13 Q1029
02:30
V
14 °C 10 km+ - 270° 270° 3 kt METAR LFCK 060030Z AUTO 27003KT 220V310 CAVOK 14/14 Q1029
02:00
V
15 °C 10 km+ - Var Var 3 kt METAR LFCK 060000Z AUTO VRB03KT CAVOK 15/14 Q1029
01:30
V
16 °C 10 km+ - Var Var 3 kt METAR LFCK 052330Z AUTO VRB03KT CAVOK 16/14 Q1029
01:00
V
17 °C 10 km+ - 110° 110° 7 kt METAR LFCK 052300Z AUTO 11007KT CAVOK 17/15 Q1028
00:30
V
17 °C 10 km+ - 100° 100° 6 kt METAR LFCK 052230Z AUTO 10006KT CAVOK 17/15 Q1028
00:00
V
17 °C 10 km+ - 110° 110° 8 kt METAR LFCK 052200Z AUTO 11008KT CAVOK 17/15 Q1028

October 5, 2022

Time Code Weather Temp. Visibility Ceiling Wind METAR/SPECI
23:30
V
17 °C 10 km+ - 100° 100° 8 kt METAR LFCK 052130Z AUTO 10008KT CAVOK 17/15 Q1028
23:00
V
18 °C 10 km+ - 100° 100° 8 kt METAR LFCK 052100Z AUTO 10008KT CAVOK 18/15 Q1028
22:30
V
18 °C 10 km+ - 100° 100° 7 kt METAR LFCK 052030Z AUTO 10007KT CAVOK 18/15 Q1027
22:00
V
18 °C 10 km+ - 110° 110° 7 kt METAR LFCK 052000Z AUTO 11007KT CAVOK 18/15 Q1027 NOSIG
21:30
V
18 °C 10 km+ - 100° 100° 8 kt METAR LFCK 051930Z AUTO 10008KT CAVOK 18/15 Q1027 NOSIG
21:00
V
18 °C 10 km+ - 110° 110° 7 kt METAR LFCK 051900Z AUTO 11007KT CAVOK 18/15 Q1026 NOSIG
20:30
V
18 °C 10 km+ - 100° 100° 7 kt METAR LFCK 051830Z AUTO 10007KT CAVOK 18/14 Q1026 NOSIG
20:00
V
19 °C 10 km+ - 120° 120° 9 kt METAR LFCK 051800Z AUTO 12009KT CAVOK 19/15 Q1026 NOSIG
19:30
V
19 °C 10 km+ - 130° 130° 10 kt METAR LFCK 051730Z AUTO 13010KT CAVOK 19/14 Q1025 NOSIG
19:00
V
20 °C 10 km+ - 130° 130° 10 kt METAR LFCK 051700Z AUTO 13010KT 110V170 CAVOK 20/14 Q1024 TEMPO 12018G28KT
18:30
V
21 °C 10 km+ - 130° 130° 14 kt METAR LFCK 051630Z AUTO 13014KT CAVOK 21/14 Q1024 TEMPO 12018G28KT
18:00
V
22 °C 10 km+ - 130° 130° 13 kt METAR LFCK 051600Z AUTO 13013KT CAVOK 22/14 Q1024 BECMG 12018G28KT
17:30
V
22 °C 10 km+ - 120° 120° 15 kt METAR LFCK 051530Z AUTO 12015KT CAVOK 22/14 Q1024 BECMG 12018G28KT
17:00
V
23 °C 10 km+ - 120° 120° 17 kt METAR LFCK 051500Z AUTO 12017KT CAVOK 23/14 Q1024 BECMG 12018G28KT
16:30
V
23 °C 10 km+ - 110° 110° 19 kt METAR LFCK 051430Z AUTO 11019KT CAVOK 23/14 Q1024 BECMG 12018G28KT
16:00
V
23 °C 10 km+ - 120° 120° 16 kt METAR LFCK 051400Z AUTO 12016KT 090V150 CAVOK 23/14 Q1024 BECMG 12018G28KT
15:30
V
23 °C 10 km+ - 120° 120° 17 kt METAR LFCK 051330Z AUTO 12017KT CAVOK 23/14 Q1023 BECMG 12018G28KT
15:00
V
23 °C 10 km+ - 120° 120° 16 kt METAR LFCK 051300Z AUTO 12016KT CAVOK 23/14 Q1023 BECMG 12018G28KT
14:30
V
23 °C 10 km+ - 120° 120° 18 kt METAR LFCK 051230Z AUTO 12018KT 080V140 CAVOK 23/14 Q1024 BECMG 12018G28KT
14:00
V
23 °C 10 km+ - 120° 120° 18 kt METAR LFCK 051200Z AUTO 12018KT CAVOK 23/14 Q1024 BECMG 12018G28KT
13:30
V
23 °C 10 km+ - 120° 120° 17 kt METAR LFCK 051130Z AUTO 12017KT CAVOK 23/14 Q1024 BECMG 12018G28KT
13:00
V
22 °C 10 km+ - 120° 120° 17 kt METAR LFCK 051100Z AUTO 12017KT 090V150 CAVOK 22/14 Q1024 BECMG 12018G28KT
12:30
V
22 °C 10 km+ - 120° 120° 18 kt METAR LFCK 051030Z AUTO 12018KT CAVOK 22/14 Q1024 BECMG 12018G28KT
12:00
V
22 °C 10 km+ - 120° 120° 17 kt METAR LFCK 051000Z AUTO 12017KT CAVOK 22/14 Q1024 BECMG 12018G28KT
11:30
V
21 °C 10 km+ - 120° 120° 19 kt METAR LFCK 050930Z AUTO 12019KT CAVOK 21/14 Q1024 BECMG 12018G28KT
11:00
V
20 °C 10 km+ - 120° 120° 19 kt METAR LFCK 050900Z AUTO 12019KT CAVOK 20/14 Q1024 BECMG 12018G28KT
10:30
V
19 °C 10 km+ - 120° 120° 18 kt METAR LFCK 050830Z AUTO 12018KT CAVOK 19/14 Q1024 BECMG 12016G26KT
10:00
V
19 °C 10 km+ - 120° 120° 16 kt METAR LFCK 050800Z AUTO 12016KT CAVOK 19/13 Q1024 BECMG 12016G26KT
09:30
V
17 °C 10 km+ - 120° 120° 15 kt METAR LFCK 050730Z AUTO 12015KT CAVOK 17/13 Q1023 BECMG 12016G26KT
09:00
V
17 °C 10 km+ - 120° 120° 19 kt METAR LFCK 050700Z AUTO 12019KT CAVOK 17/12 Q1023 BECMG 12016G26KT
08:30
V
16 °C 10 km+ - 120° 120° 15 kt METAR LFCK 050630Z AUTO 12015KT CAVOK 16/11 Q1023 BECMG 12016G26KT
08:00
V
16 °C 10 km+ - 110° 110° 10 kt METAR LFCK 050600Z AUTO 11010KT CAVOK 16/11 Q1023 BECMG 12016G26KT
07:30
V
16 °C 10 km+ - 100° 100° 9 kt METAR LFCK 050530Z AUTO 10009KT CAVOK 16/11 Q1023
07:00
V
15 °C 10 km+ - 110° 110° 9 kt METAR LFCK 050500Z AUTO 11009KT CAVOK 15/11 Q1023
06:30
V
15 °C 10 km+ - 110° 110° 11 kt METAR LFCK 050430Z AUTO 11011KT CAVOK 15/11 Q1023
06:00
V
15 °C 10 km+ - 120° 120° 13 kt METAR LFCK 050400Z AUTO 12013KT CAVOK 15/11 Q1023
05:30
V
16 °C 10 km+ - 120° 120° 12 kt METAR LFCK 050330Z AUTO 12012KT CAVOK 16/11 Q1023
05:00
V
15 °C 10 km+ - 130° 130° 11 kt METAR LFCK 050300Z AUTO 13011KT CAVOK 15/11 Q1023
04:30
V
14 °C 10 km+ - 120° 120° 9 kt METAR LFCK 050230Z AUTO 12009KT CAVOK 14/11 Q1023
04:00
V
14 °C 10 km+ - 100° 100° 3 kt METAR LFCK 050200Z AUTO 10003KT 040V190 CAVOK 14/11 Q1023
03:30
V
13 °C 10 km+ - 110° 110° 4 kt METAR LFCK 050130Z AUTO 11004KT 090V160 CAVOK 13/10 Q1024
03:00
V
13 °C 10 km+ - 120° 120° 3 kt METAR LFCK 050100Z AUTO 12003KT 070V150 CAVOK 13/11 Q1024
02:30
V
12 °C 10 km+ - 110° 110° 4 kt METAR LFCK 050030Z AUTO 11004KT CAVOK 12/10 Q1023
02:00
V
13 °C 10 km+ - 110° 110° 4 kt METAR LFCK 050000Z AUTO 11004KT CAVOK 13/11 Q1024
01:30
V
14 °C 10 km+ - 100° 100° 5 kt METAR LFCK 042330Z AUTO 10005KT 070V140 CAVOK 14/11 Q1024
01:00
V
14 °C 10 km+ - 090° 090° 4 kt METAR LFCK 042300Z AUTO 09004KT CAVOK 14/11 Q1024
00:30
V
14 °C 10 km+ - 110° 110° 5 kt METAR LFCK 042230Z AUTO 11005KT CAVOK 14/11 Q1024
00:00
V
13 °C 10 km+ - 110° 110° 6 kt METAR LFCK 042200Z AUTO 11006KT CAVOK 13/11 Q1024

October 4, 2022

Time Code Weather Temp. Visibility Ceiling Wind METAR/SPECI
23:30
V
13 °C 10 km+ - Var 000° 0 kt METAR LFCK 042130Z AUTO /////KT CAVOK 13/11 Q1024
23:00
V
13 °C 10 km+ - 090° 090° 4 kt METAR LFCK 042100Z AUTO 09004KT CAVOK 13/11 Q1024 NOSIG
22:30
V
14 °C 10 km+ - 130° 130° 5 kt METAR LFCK 042030Z AUTO 13005KT CAVOK 14/12 Q1024 NOSIG
22:00
V
15 °C 10 km+ - 130° 130° 7 kt METAR LFCK 042000Z AUTO 13007KT CAVOK 15/12 Q1024 NOSIG
21:30
V
15 °C 10 km+ - 140° 140° 5 kt METAR LFCK 041930Z AUTO 14005KT CAVOK 15/12 Q1023 NOSIG
21:00
V
15 °C 10 km+ - 140° 140° 6 kt METAR LFCK 041900Z AUTO 14006KT CAVOK 15/11 Q1023 NOSIG
20:30
V
16 °C 10 km+ - 130° 130° 6 kt METAR LFCK 041830Z AUTO 13006KT CAVOK 16/12 Q1023 NOSIG
20:00
V
18 °C 10 km+ - 160° 160° 4 kt METAR LFCK 041800Z AUTO 16004KT CAVOK 18/12 Q1023 NOSIG
19:30
V
21 °C 10 km+ - 200° 200° 3 kt METAR LFCK 041730Z AUTO 20003KT CAVOK 21/12 Q1022 NOSIG
19:00
V
24 °C 10 km+ - 270° 270° 4 kt METAR LFCK 041700Z AUTO 27004KT CAVOK 24/12 Q1022 NOSIG
18:30
V
24 °C 10 km+ - 280° 280° 4 kt METAR LFCK 041630Z AUTO 28004KT 240V310 CAVOK 24/11 Q1022 NOSIG
18:00
V
24 °C 10 km+ - 260° 260° 4 kt METAR LFCK 041600Z AUTO 26004KT 220V310 CAVOK 24/11 Q1022 NOSIG
17:30
V
25 °C 10 km+ - 330° 330° 4 kt METAR LFCK 041530Z AUTO 33004KT 250V010 CAVOK 25/11 Q1022 NOSIG
17:00
V
24 °C 10 km+ - 290° 290° 4 kt METAR LFCK 041500Z AUTO 29004KT 260V340 CAVOK 24/11 Q1022 NOSIG
16:30
V
24 °C 10 km+ - 290° 290° 5 kt METAR LFCK 041430Z AUTO 29005KT 240V350 CAVOK 24/11 Q1022 NOSIG
16:00
V
24 °C 10 km+ - 320° 320° 6 kt METAR LFCK 041400Z AUTO 32006KT 280V360 CAVOK 24/10 Q1022 NOSIG
15:30
V
24 °C 10 km+ - 300° 300° 5 kt METAR LFCK 041330Z AUTO 30005KT 250V020 CAVOK 24/11 Q1022 NOSIG
15:00
V
23 °C 10 km+ - 320° 320° 5 kt METAR LFCK 041300Z AUTO 32005KT 220V020 CAVOK 23/11 Q1022 NOSIG
14:30
V
23 °C 10 km+ - 290° 290° 5 kt METAR LFCK 041230Z AUTO 29005KT 250V360 CAVOK 23/11 Q1022 NOSIG
14:00
V
23 °C 10 km+ - 290° 290° 4 kt METAR LFCK 041200Z AUTO 29004KT 240V020 CAVOK 23/12 Q1023 NOSIG
13:30
V
23 °C 10 km+ - Var Var 3 kt METAR LFCK 041130Z AUTO VRB03KT CAVOK 23/12 Q1023 NOSIG
13:00
V
22 °C 10 km+ - 330° 330° 3 kt METAR LFCK 041100Z AUTO 33003KT 290V060 CAVOK 22/12 Q1023 NOSIG
12:30
V
21 °C 10 km+ - 280° 280° 3 kt METAR LFCK 041030Z AUTO 28003KT 200V360 CAVOK 21/12 Q1023 NOSIG
12:00
V
21 °C 10 km+ - Var Var 3 kt METAR LFCK 041000Z AUTO VRB03KT CAVOK 21/13 Q1023 NOSIG
11:30
V
20 °C 10 km+ - Var Var 2 kt METAR LFCK 040930Z AUTO VRB02KT CAVOK 20/13 Q1023 NOSIG
11:00
V
19 °C 10 km+ - Var 000° 0 kt METAR LFCK 040900Z AUTO 00000KT CAVOK 19/13 Q1023 NOSIG
10:30
V
18 °C 10 km+ - Var Var 2 kt METAR LFCK 040830Z AUTO VRB02KT CAVOK 18/12 Q1023 NOSIG
10:00
V
17 °C 10 km+ - 140° 140° 3 kt METAR LFCK 040800Z AUTO 14003KT 120V180 CAVOK 17/12 Q1023 NOSIG
09:30
V
15 °C 10 km+ - 120° 120° 2 kt METAR LFCK 040730Z AUTO 12002KT CAVOK 15/12 Q1022 NOSIG
09:00
V
13 °C 10 km+ - 140° 140° 3 kt METAR LFCK 040700Z AUTO 14003KT CAVOK 13/11 Q1022 NOSIG
08:30
V
11 °C 10 km+ - 090° 090° 2 kt METAR LFCK 040630Z AUTO 09002KT CAVOK 11/10 Q1022 NOSIG
08:00
V
9 °C 10 km+ - 150° 150° 4 kt METAR LFCK 040600Z AUTO 15004KT CAVOK 09/08 Q1022 TEMPO 4000 BR
07:30
V
10 °C 10 km+ - Var 000° 0 kt METAR LFCK 040530Z AUTO 00000KT CAVOK 10/09 Q1022 TEMPO 4000 BR
07:00
V
10 °C 10 km+ - Var 000° 0 kt METAR LFCK 040500Z AUTO 00000KT CAVOK 10/09 Q1022
Older data

We and third parties follow your internet behavior on our website with cookies. If you continue, we assume you agree with our cookie policy. Learn more